Change the Weather History Date:

Wednesday, October 8, 2014

  Actual Average Record
Temperature  
Mean Temperature 54 °F 50 °F  
Max Temperature 63 °F 60 °F 82 °F (2007)
Min Temperature 45 °F 41 °F 22 °F (1916)
Degree Days  
Heating Degree Days 11 15  
Month to date heating degree days 95 108  
Since 1 July heating degree days 333 376  
Cooling Degree Days 0 0  
Month to date cooling degree days 0 0  
Year to date cooling degree days 252 313  
Growing Degree Days 7 (Base 50)    
Moisture  
Dew Point 47 °F    
Average Humidity 68    
Maximum Humidity 93    
Minimum Humidity 43    
Precipitation  
Precipitation 0.26 in 0.14 in 3.86 in (2005)
Month to date precipitation 1.34 1.26  
Year to date precipitation 30.86 37.60  
Sea Level Pressure  
Sea Level Pressure 29.84 in    
Wind  
Wind Speed 14 mph (WSW)    
Max Wind Speed 26 mph    
Max Gust Speed 37 mph    
Visibility 9 miles    
Events Rain    
T = Trace of Precipitation, MM = Missing Value Source: NWS Daily Summary

Daily Weather History Graph

Daily Weather History Graph

Search for Another Location

Airport or City:

Trip Planner

Search our weather history database for the weather conditions in past years. The results will help you decide how hot, cold, wet, or windy it might be!

Date:

Astronomy

Oct. 08, 2014 Rise Set
Actual Time 7:05 AM EDT 6:31 PM EDT
Civil Twilight 6:37 AM EDT 6:59 PM EDT
Nautical Twilight 6:06 AM EDT 7:31 PM EDT
Astronomical Twilight 5:33 AM EDT 8:03 PM EDT
Moon 6:45 PM EDT (10/8) 7:09 AM EDT (10/8)
Length of Visible Light 12h 21m
Length of Day
11h 26m
Full, 100% of the Moon is Illuminated
Oct 8
Full
Oct 15
Last Quarter
Oct 23
New
Oct 30
First Quarter
Nov 6
Full

Hourly Weather History & Observations

Time (EDT) Temp. Dew Point Humidity Pressure Visibility Wind Dir Wind Speed Gust Speed Precip Events Conditions
12:16 AM 57.0 °F 55.0 °F 93% 29.83 in 4.0 mi South 15.0 mph 26.5 mph 0.07 in Rain Rain
12:50 AM 57.2 °F 53.6 °F 88% 29.81 in 2.5 mi SSW 16.1 mph 27.6 mph 0.20 in Rain Heavy Rain
12:53 AM 55.9 °F 53.1 °F 90% 29.81 in 2.0 mi SSW 25.3 mph 33.4 mph 0.24 in Rain Heavy Rain
12:56 AM 55.9 °F 52.0 °F 87% 29.81 in 1.5 mi SSW 21.9 mph 33.4 mph 0.05 in Rain Heavy Rain
1:06 AM 55.0 °F 51.1 °F 86% 29.80 in 2.0 mi SW 9.2 mph - 0.17 in Rain Heavy Rain
1:13 AM 55.0 °F 51.1 °F 86% 29.80 in 1.8 mi WSW 12.7 mph - 0.24 in Rain Heavy Rain
1:24 AM 55.0 °F 52.0 °F 89% 29.79 in 3.0 mi SW 11.5 mph 18.4 mph 0.33 in Rain Rain
1:34 AM 55.0 °F 52.0 °F 89% 29.79 in 10.0 mi SW 11.5 mph - 0.35 in Rain Light Rain
1:53 AM 55.9 °F 53.1 °F 90% 29.78 in 10.0 mi SW 13.8 mph 21.9 mph 0.35 in   Mostly Cloudy
2:32 AM 57.0 °F 53.1 °F 87% 29.80 in 10.0 mi SW 18.4 mph 27.6 mph N/A   Overcast
2:39 AM 57.0 °F 52.0 °F 83% 29.80 in 10.0 mi SW 16.1 mph 26.5 mph N/A   Overcast
2:53 AM 57.0 °F 52.0 °F 83% 29.79 in 10.0 mi SW 10.4 mph 26.5 mph N/A   Overcast
3:19 AM 57.0 °F 52.0 °F 83% 29.79 in 10.0 mi WSW 15.0 mph 23.0 mph N/A   Overcast
3:53 AM 55.9 °F 52.0 °F 87% 29.78 in 10.0 mi SW 10.4 mph - N/A   Overcast
4:07 AM 55.9 °F 51.1 °F 84% 29.80 in 10.0 mi WSW 13.8 mph 20.7 mph N/A   Mostly Cloudy
4:53 AM 54.0 °F 51.1 °F 90% 29.80 in 10.0 mi WSW 5.8 mph - N/A   Scattered Clouds
5:18 AM 54.0 °F 51.1 °F 90% 29.80 in 10.0 mi WSW 8.1 mph - N/A   Mostly Cloudy
5:42 AM 54.0 °F 51.1 °F 90% 29.81 in 10.0 mi West 12.7 mph - N/A   Overcast
5:53 AM 54.0 °F 51.1 °F 90% 29.80 in 10.0 mi WSW 9.2 mph - N/A   Overcast
6:42 AM 53.1 °F 50.0 °F 89% 29.81 in 10.0 mi West 11.5 mph - N/A   Mostly Cloudy
6:53 AM 53.1 °F 50.0 °F 89% 29.82 in 10.0 mi West 12.7 mph 20.7 mph N/A   Overcast
7:49 AM 53.6 °F 48.2 °F 82% 29.83 in 10.0 mi West 15.0 mph 23.0 mph N/A   Scattered Clouds
7:53 AM 52.0 °F 48.9 °F 89% 29.83 in 10.0 mi West 16.1 mph 23.0 mph N/A   Partly Cloudy
8:53 AM 54.0 °F 48.0 °F 80% 29.84 in 10.0 mi West 16.1 mph - N/A   Partly Cloudy
9:53 AM 55.9 °F 46.0 °F 69% 29.86 in 10.0 mi West 20.7 mph 28.8 mph N/A   Mostly Cloudy
10:04 AM 55.9 °F 46.0 °F 69% 29.87 in 10.0 mi West 25.3 mph 33.4 mph N/A   Mostly Cloudy
10:29 AM 55.9 °F 46.0 °F 69% 29.87 in 10.0 mi West 21.9 mph 36.8 mph N/A   Scattered Clouds
10:48 AM 59.0 °F 46.4 °F 63% 29.87 in 10.0 mi WNW 13.8 mph 25.3 mph N/A   Mostly Cloudy
10:53 AM 57.9 °F 46.0 °F 65% 29.87 in 10.0 mi WNW 18.4 mph 26.5 mph N/A   Mostly Cloudy
11:17 AM 57.0 °F 45.0 °F 64% 29.87 in 10.0 mi WNW 13.8 mph 24.2 mph N/A   Mostly Cloudy
11:53 AM 59.0 °F 44.1 °F 58% 29.86 in 10.0 mi West 17.3 mph 28.8 mph N/A   Mostly Cloudy
12:53 PM 62.1 °F 43.0 °F 50% 29.85 in 10.0 mi West 20.7 mph 29.9 mph N/A   Scattered Clouds
1:53 PM 62.1 °F 43.0 °F 50% 29.84 in 10.0 mi WNW 16.1 mph 27.6 mph N/A   Mostly Cloudy
2:53 PM 63.0 °F 41.0 °F 45% 29.82 in 10.0 mi WSW 16.1 mph 31.1 mph N/A   Mostly Cloudy
3:53 PM 62.1 °F 43.0 °F 50% 29.83 in 10.0 mi WNW 16.1 mph 25.3 mph N/A   Mostly Cloudy
4:53 PM 62.1 °F 39.9 °F 44% 29.83 in 10.0 mi West 21.9 mph 33.4 mph N/A   Partly Cloudy
5:53 PM 60.1 °F 41.0 °F 49% 29.84 in 10.0 mi West 11.5 mph 19.6 mph N/A   Partly Cloudy
6:53 PM 57.9 °F 39.9 °F 51% 29.87 in 10.0 mi West 11.5 mph - N/A   Partly Cloudy
7:53 PM 55.9 °F 37.0 °F 49% 29.91 in 10.0 mi WNW 17.3 mph 25.3 mph N/A   Unknown
8:53 PM 54.0 °F 36.0 °F 51% 29.92 in 10.0 mi WNW 15.0 mph 21.9 mph N/A   Clear
9:53 PM 53.1 °F 36.0 °F 52% 29.95 in 10.0 mi West 11.5 mph - N/A   Clear
10:53 PM 51.1 °F 37.0 °F 59% 29.95 in 10.0 mi WNW 9.2 mph - N/A   Partly Cloudy
11:53 PM 48.0 °F 37.0 °F 66% 29.96 in 10.0 mi WSW 4.6 mph - N/A   Scattered Clouds